FW3161 Weather Reports


time (UTC)temp
F
wind
direction
speed
knots
gust
knots
rain 1hr
in
rain 24hr
in
rain mn
in
humidity
%
barometer
mb
20260502161519 83 360 7.8 16.5 0.00 0.00 0.00 15 1012.6
20260502151515 80 98 3.5 7.0 0.00 0.00 0.00 13 1012.3
20260502123048 73 360 2.6 7.0 0.00 0.00 0.00 14 1010.3
20260502121538 73 360 3.5 9.6 0.00 0.00 0.00 14 1010.1
20260502114537 72 360 2.6 3.5 0.00 0.00 0.00 16 1010.1
20260502113036 71 360 2.6 3.5 0.00 0.00 0.00 16 1010.0
20260502111538 71 360 0.9 4.3 0.00 0.00 0.00 17 1010.0
20260502110033 72 360 2.6 4.3 0.00 0.00 0.00 17 1009.9
20260502104535 72 360 1.7 2.6 0.00 0.00 0.00 16 1009.9
20260502103032 73 360 0.9 3.5 0.00 0.00 0.00 16 1009.9
20260502101528 72 360 0.9 2.6 0.00 0.00 0.00 17 1009.8
20260502091524 73 360 2.6 5.2 0.00 0.00 0.00 15 1009.5
20260502071502 77 360 2.6 5.2 0.00 0.00 0.00 8 1008.6
20260502070059 77 360 2.6 4.3 0.00 0.00 0.00 8 1008.6
20260502064606 77 360 1.7 4.3 0.00 0.00 0.00 8 1008.7
20260502063106 78 360 1.7 4.3 0.00 0.00 0.00 8 1008.6
20260502061611 78 360 2.6 4.3 0.00 0.00 0.00 8 1008.5
20260502060048 79 360 2.6 7.8 0.00 0.00 0.00 8 1008.3
20260502054543 80 360 1.7 7.0 0.00 0.00 0.00 7 1008.3
20260502053040 80 360 1.7 5.2 0.00 0.00 0.00 7 1008.2
20260502051535 81 360 1.7 4.3 0.00 0.00 0.00 6 1008.2
20260502050031 81 360 0.9 3.5 0.00 0.00 0.00 6 1008.1
20260502044526 82 360 2.6 3.5 0.00 0.00 0.00 5 1007.9
20260502043024 82 360 2.6 4.3 0.00 0.00 0.00 5 1007.9
20260502041525 83 360 1.7 3.5 0.00 0.00 0.00 5 1007.7
20260502040015 82 360 0.9 2.6 0.00 0.00 0.00 5 1007.6
20260502034509 83 360 0.9 3.5 0.00 0.00 0.00 5 1007.5
20260502033004 84 360 1.7 5.2 0.00 0.00 0.00 4 1007.3
20260502031502 84 360 1.7 3.5 0.00 0.00 0.00 4 1007.2
20260502030106 85 360 0.9 4.3 0.00 0.00 0.00 4 1007.0
20260502023049 87 360 1.7 5.2 0.00 0.00 0.00 3 1006.7
20260502021546 87 360 1.7 8.7 0.00 0.00 0.00 3 1006.6
20260502020040 88 360 3.5 7.8 0.00 0.00 0.00 4 1006.5
20260502014534 89 360 4.3 9.6 0.00 0.00 0.00 3 1006.4
20260502013030 89 360 2.6 9.6 0.00 0.00 0.00 3 1006.4
20260502011530 89 184 2.6 9.6 0.00 0.00 0.00 4 1006.4
20260502010021 90 210 2.6 5.2 0.00 0.00 0.00 4 1006.6
20260502004520 90 209 2.6 6.1 0.00 0.00 0.00 4 1006.5
20260502003020 90 243 2.6 9.6 0.00 0.00 0.00 4 1006.6
20260502001520 90 202 0.9 6.1 0.00 0.00 0.00 5 1006.7
20260502000016 90 202 2.6 7.8 0.00 0.00 0.00 6 1006.8
20260501234516 90 211 4.3 8.7 0.00 0.00 0.00 6 1006.8
20260501233015 90 229 3.5 7.8 0.00 0.00 0.00 6 1006.9
20260501231513 90 181 5.2 9.6 0.00 0.00 0.00 7 1007.0
20260501230012 89 225 3.5 8.7 0.00 0.00 0.00 7 1007.1
20260501224510 88 196 3.5 9.6 0.00 0.00 0.00 8 1007.3
20260501223012 89 252 4.3 8.7 0.00 0.00 0.00 7 1007.4
20260501221509 89 241 0.9 10.4 0.00 0.00 0.00 8 1007.7
20260501220007 88 169 3.5 12.2 0.00 0.00 0.00 7 1008.0
20260501214505 88 254 0.9 7.0 0.00 0.00 0.00 9 1008.1
20260501213005 88 202 5.2 10.4 0.00 0.00 0.00 10 1008.5
20260501211503 88 162 2.6 8.7 0.00 0.00 0.00 9 1008.5
20260501210002 86 213 3.5 13.9 0.00 0.00 0.00 10 1008.8
20260501204501 87 145 1.7 10.4 0.00 0.00 0.00 11 1009.0
20260501203104 87 286 2.6 9.6 0.00 0.00 0.00 11 1009.0
20260501201559 86 216 0.9 9.6 0.00 0.00 0.00 11 1009.1
20260501200056 86 243 4.3 10.4 0.00 0.00 0.00 11 1009.2
20260501194601 86 238 3.5 7.8 0.00 0.00 0.00 12 1009.4
20260501193054 86 186 1.7 7.8 0.00 0.00 0.00 12 1009.7
20260501191554 85 154 2.6 7.0 0.00 0.00 0.00 13 1009.9
20260501190050 84 304 2.6 5.2 0.00 0.00 0.00 17 1010.1
20260501184549 84 182 0.9 5.2 0.00 0.00 0.00 15 1010.3
20260501183048 83 205 0.9 7.0 0.00 0.00 0.00 15 1010.4
20260501181551 83 266 1.7 7.8 0.00 0.00 0.00 15 1010.7
20260501180044 81 360 0.9 5.2 0.00 0.00 0.00 15 1010.9
20260501174544 81 221 2.6 6.1 0.00 0.00 0.00 16 1011.0
20260501173045 81 240 2.6 7.8 0.00 0.00 0.00 18 1011.1
20260501171539 80 201 0.9 7.8 0.00 0.00 0.00 18 1011.2
20260501170042 80 360 0.9 7.8 0.00 0.00 0.00 19 1011.2
20260501164544 79 360 4.3 7.8 0.00 0.00 0.00 20 1011.2
20260501163037 78 360 2.6 7.8 0.00 0.00 0.00 20 1011.2